Location: Castiglione Fibocchi
(43.5333°N, 11.7667°E)
Time: 16:50:03
(UTC+00:00)

SL-24 R/B - Pass Details

Date: 15 August 2020
Orbit: 616 x 1346 km, 97.9° (Epoch: 17 September)

Event Time Altitude Azimuth Distance (km) Brightness Sun altitude
Rises 02:54:30 0° 173° (S) 3,560 7.7 -14.2°
Reaches altitude 10° 02:57:08 10° 176° (S) 2,509 6.9 -13.8°
Maximum altitude 03:02:33 64° 258° (WSW) 843 4.5 -13.0°
Drops below altitude 10° 03:07:11 10° 341° (NNW) 2,148 7.0 -12.3°
Sets 03:09:18 0° 344° (NNW) 3,008 7.8 -12.0°
